Location: San Martino di Castrozza
(46.2667°N, 11.8000°E)
Time: 14:29:15
(UTC+00:00)

Cosmos 1153 Rocket - Pass Details

Date: 23 April 2021
Orbit: 954 x 1006 km, 82.9° (Epoch: 12 May)

Event Time Altitude Azimuth Distance (km) Brightness Sun altitude
Rises 02:43:02 0° 349° (N) 3,682 7.9 -14.4°
Reaches altitude 10° 02:45:33 10° 348° (NNW) 2,738 7.2 -14.1°
Maximum altitude 02:51:48 75° 265° (W) 1,026 4.5 -13.2°
Drops below altitude 10° 02:58:07 10° 181° (S) 2,755 6.5 -12.3°
Sets 03:00:38 0° 180° (S) 3,706 7.2 -11.9°
